Home > Weather > Neuruppin > Past weeks

Flag for Germany Past Weather in Neuruppin, Brandenburg, Germany — Yesterday and Last 2 Weeks

Now
66 °F

Clear.


Feels Like: 66 °F
Forecast: 65 / 89 °F
Wind: 2 mph from North

Location: Berlin-Tegel

Current Time: Aug 27, 2016 at 5:15:17 AM

Latest Report: Aug 27, 2016 at 4:20 AM


Visibility: 10 mi

Pressure: 30.07 "Hg

Humidity: 64%

Dew Point: 54 °F

Location of NeuruppinLocation

Past Weather in Neuruppin — Graph

°F

Neuruppin Temperature Yesterday

Maximum temperature yesterday: 93 °F (at 3:20 PM)
Minimum temperature yesterday: 64 °F (at 4:20 AM)
Average temperature yesterday: 78 °F

High & Low Weather Summary for the Past Weeks

 TemperatureHumidityPressure
High93 °F (Aug 26, 3:20 PM)100% (Aug 17, 3:50 AM)30.33 "Hg (Aug 17, 3:50 AM)
Low46 °F (Aug 17, 5:50 AM)12% (Aug 26, 4:20 PM)29.80 "Hg (Aug 18, 4:20 PM)
Average66 °F66%30.08 "Hg
* Reported Aug 12 3:20 AM — Aug 27 3:50 AM, Neuruppin, Weather by CustomWeather, © 2016

Note: Actual official high and low records may vary slightly from our data, if they occured in-between our weather recording intervals... More about our weather records

Advertising

Neuruppin Weather History for the Previous 24 Hours

Scroll right to see more
 ConditionsComfort  
Time TempWeatherWind HumidityBarometerVisibility
3:50 AM
Sat, Aug 27
64 °FClear.5 mph73%30.07 "Hg10 mi
3:20 AM66 °FClear.2 mph68%30.07 "Hg10 mi
2:50 AM68 °FClear.2 mph60%30.07 "Hg10 mi
2:20 AM70 °FClear.5 mph57%30.07 "Hg10 mi
1:50 AM70 °FClear.1 mph57%30.04 "Hg10 mi
1:20 AM72 °FClear.3 mph53%30.04 "Hg10 mi
12:50 AM73 °FClear.2 mph50%30.04 "Hg10 mi
12:20 AM73 °FClear.2 mph47%30.04 "Hg10 mi
11:50 PM
Fri, Aug 26
75 °FClear.3 mph44%30.04 "Hg10 mi
11:20 PM73 °FClear.5 mph47%30.04 "Hg10 mi
10:50 PM75 °FPassing clouds.7 mph44%30.04 "HgN/A
10:20 PM77 °FClear.6 mph39%30.04 "Hg10 mi
9:50 PM79 °FClear.7 mph37%30.04 "Hg10 mi
9:20 PM81 °FClear.7 mph32%30.04 "Hg10 mi
8:50 PM84 °FSunny.8 mph29%30.04 "Hg10 mi
8:20 PM84 °FSunny.8 mph29%30.01 "Hg10 mi
7:50 PM86 °FPassing clouds.6 mph20%30.01 "HgN/A
7:20 PM90 °FSunny.5 mph17%30.01 "Hg10 mi
6:50 PM91 °FSunny.7 mph15%30.01 "Hg10 mi
6:20 PM91 °FPassing clouds.8 mph15%30.01 "HgN/A
5:50 PM93 °FSunny.9 mph13%30.01 "Hg10 mi
5:20 PM93 °FSunny.10 mph13%30.01 "Hg10 mi
4:50 PM93 °FPassing clouds.9 mph13%30.01 "HgN/A
4:20 PM93 °FPassing clouds.9 mph12%30.01 "HgN/A
3:50 PM91 °FPassing clouds.9 mph16%30.01 "HgN/A
3:20 PM93 °FPassing clouds.10 mph15%30.01 "HgN/A
2:50 PM91 °FPassing clouds.12 mph16%30.01 "HgN/A
2:20 PM91 °FPassing clouds.12 mph20%30.04 "HgN/A
1:50 PM90 °FSunny.13 mph24%30.04 "Hg10 mi
1:20 PM88 °FPassing clouds.10 mph27%30.04 "HgN/A
12:50 PM86 °FPassing clouds.10 mph31%30.04 "HgN/A
12:20 PM84 °FPassing clouds.9 mph33%30.04 "HgN/A
11:50 AM82 °FPassing clouds.9 mph35%30.04 "HgN/A
11:20 AM81 °FPassing clouds.10 mph37%30.04 "HgN/A
10:50 AM81 °FSunny.10 mph37%30.04 "Hg10 mi
10:20 AM77 °FPassing clouds.8 mph44%30.04 "HgN/A
9:50 AM75 °FPassing clouds.8 mph47%30.04 "HgN/A
9:20 AM73 °FPassing clouds.7 mph50%30.07 "HgN/A
8:50 AM72 °FPassing clouds.7 mph57%30.07 "HgN/A
8:20 AM70 °FSunny.8 mph57%30.07 "Hg10 mi
7:50 AM68 °FSunny.8 mph60%30.07 "Hg10 mi
7:20 AM66 °FPassing clouds.7 mph64%30.07 "HgN/A
6:50 AM64 °FPassing clouds.7 mph68%30.07 "HgN/A
6:20 AM64 °FPassing clouds.6 mph68%30.07 "HgN/A
5:50 AM64 °FClear.7 mph68%30.07 "Hg10 mi
5:20 AM64 °FClear.9 mph68%30.07 "Hg10 mi
Weather by CustomWeather, © 2016

See weather overviewHow to use our weather pages